Wind_Speed
24 23 21 20 21 21 20 19 18 17 15 14 14 14 12 10 10 11 12 12 11 10 9 8 8 8 8 8 8 8 7 7 6 6 6 8 8 8 9 9 9 9
25 24 22 21 21 21 20 19 18 16 15 14 14 13 12 11 12 12 12 12 11 10 10 9 8 8 9 9 9 9 8 8 7 7 6 6 7 7 9 9 8 9
26 25 23 21 21 21 20 19 18 16 15 14 14 14 13 12 12 12 11 11 11 11 10 10 9 9 9 10 10 9 9 9 9 8 8 7 7 7 8 9 8 8
26 26 24 21 21 21 20 19 19 17 16 16 15 15 14 14 13 13 12 11 11 12 11 11 11 10 10 10 10 9 9 9 9 10 9 7 6 7 8 9 8 9
26 25 24 22 22 21 20 20 19 18 17 16 15 15 15 15 15 14 13 12 12 12 12 12 11 11 11 11 10 10 9 8 8 10 9 7 6 7 8 9 9 10
27 26 24 22 22 21 21 20 19 18 17 16 15 15 15 15 15 14 13 13 13 13 13 12 12 12 12 11 11 10 10 9 9 9 9 7 7 8 7 8 10 11
28 28 25 23 22 22 22 20 19 18 17 16 15 15 15 15 14 14 13 13 13 14 14 12 11 11 11 11 11 11 10 10 9 9 8 7 7 8 7 7 9 11
28 28 27 25 24 23 22 20 19 19 17 16 15 15 16 16 15 14 14 13 13 14 14 12 11 11 10 11 11 10 10 10 10 9 8 6 7 7 7 7 8 9
28 28 28 26 25 25 23 20 19 18 17 16 16 16 16 17 16 15 14 13 13 13 13 12 12 12 11 10 10 10 10 10 9 9 8 7 7 7 7 7 8 9
27 27 28 27 26 25 23 21 19 18 17 16 16 15 16 17 16 16 15 15 14 14 13 13 13 13 12 11 10 9 10 10 9 9 9 8 8 8 7 7 8 8
26 25 27 28 27 26 25 23 22 20 18 18 17 17 16 15 15 16 16 16 15 15 14 15 14 13 12 12 11 10 10 10 10 9 9 9 8 8 7 7 8 8
24 23 23 26 27 27 26 25 23 22 20 19 18 17 16 14 14 15 16 17 16 15 16 16 15 13 13 12 12 12 11 11 10 10 10 10 9 8 8 8 8 8
25 22 20 21 23 25 27 26 23 22 21 20 18 17 16 14 14 14 14 15 15 15 16 16 15 15 14 13 13 13 13 12 11 10 11 11 10 8 8 9 10 10
26 25 21 19 19 20 23 24 23 21 20 19 19 19 18 16 14 14 13 12 13 14 15 15 15 16 15 15 15 15 14 13 12 12 13 12 11 10 9 9 10 10
25 26 24 22 20 18 18 20 21 21 21 20 20 20 20 19 17 15 14 13 13 13 14 15 16 16 17 16 16 16 16 15 14 14 14 14 14 13 11 10 10 10
26 26 26 24 23 21 21 21 22 23 24 23 23 23 23 22 20 18 16 15 15 14 15 17 18 18 17 17 17 17 17 17 16 15 15 15 15 14 12 11 11 11
26 26 25 23 21 21 23 24 24 24 24 24 24 23 24 24 22 20 19 18 17 17 17 19 19 18 17 17 17 18 18 18 17 16 15 15 15 14 13 12 11 10
26 25 24 22 20 19 20 22 23 23 24 24 23 22 22 23 23 22 21 21 20 20 19 19 19 19 18 17 17 17 18 18 18 16 14 14 13 12 12 11 9 8
26 25 25 24 23 21 20 20 21 22 23 24 24 23 21 22 23 23 23 23 22 21 21 20 19 19 19 19 18 17 17 18 18 16 15 14 13 11 10 10 10 11
26 25 24 24 25 25 23 22 23 23 24 24 24 24 23 22 22 23 24 25 24 23 22 22 21 22 22 21 20 19 19 19 18 17 16 16 15 13 12 13 14 14
24 25 25 24 25 26 26 26 26 25 25 25 25 26 26 24 22 21 23 24 25 26 25 25 24 25 24 24 22 21 20 21 20 18 18 18 18 17 16 17 18 17
24 25 26 26 26 27 27 28 28 27 27 27 28 29 31 29 26 25 24 24 24 25 27 27 26 26 26 26 23 21 21 21 21 20 20 20 21 21 20 20 21 21
24 25 26 27 26 27 28 29 29 29 28 28 29 31 32 32 32 32 31 29 27 26 27 27 26 25 26 25 23 21 21 21 21 21 22 23 23 24 23 23 23 23
22 24 26 27 27 27 28 29 30 31 30 27 27 29 30 30 30 32 32 32 30 27 28 28 27 26 26 25 24 23 23 23 22 23 24 25 26 26 27 27 26 26
20 22 24 26 27 27 27 28 29 31 31 29 28 29 30 31 31 32 32 31 29 28 29 29 28 27 27 27 26 26 26 25 25 25 25 26 27 27 28 29 28 28
13 15 17 19 21 23 24 26 27 26 26 27 27 28 30 31 31 31 31 29 28 29 32 33 32 30 29 30 29 29 29 29 27 27 27 27 28 27 27 27 27 26
Wind_Direction
207 209 209 209 209 209 209 210 209 208 209 205 204 210 213 212 212 208 206 208 209 208 209 213 218 222 223 227 232 231 229 226 221 220 221 218 217 224 229 227 225 225
207 208 207 206 206 206 207 207 206 207 209 207 205 210 214 214 214 213 209 211 214 215 216 218 222 225 225 228 232 235 234 231 234 239 238 233 229 230 232 229 231 233
205 206 204 204 203 203 204 205 208 208 209 209 208 210 213 212 213 216 215 216 218 220 223 224 225 227 228 230 232 236 239 238 238 245 252 251 246 242 237 233 233 232
204 205 204 203 201 201 203 207 211 210 208 209 209 210 212 213 215 218 220 221 221 221 225 227 226 224 226 230 232 235 239 241 240 243 250 253 251 247 244 244 236 229
206 206 205 202 201 201 204 209 211 209 207 209 210 211 214 216 217 220 222 222 223 222 223 226 226 225 228 231 231 232 234 237 237 240 246 247 244 243 245 245 236 228
207 208 206 203 201 201 205 209 209 209 210 211 211 212 214 216 218 220 222 224 227 227 225 226 227 226 229 232 232 231 232 234 234 237 241 239 237 238 239 240 235 229
206 208 208 206 203 203 206 208 208 210 212 212 214 216 217 218 219 221 224 226 229 229 228 228 229 228 228 231 232 230 230 234 234 236 241 240 235 233 234 238 237 234
207 207 209 209 207 206 209 210 212 214 214 215 219 220 220 221 223 225 227 227 228 230 231 230 231 232 231 231 232 231 231 233 235 238 240 238 232 228 233 240 240 241
208 208 209 209 208 208 209 211 214 217 219 222 223 222 221 224 227 229 228 227 228 231 232 232 233 233 233 234 234 233 235 236 239 243 242 239 236 230 233 239 239 242
209 210 210 210 210 209 209 210 214 219 224 229 229 224 221 223 227 229 229 229 230 231 230 231 234 234 231 232 234 236 237 237 240 247 249 249 244 236 238 246 244 243
209 210 211 211 211 210 209 211 215 220 226 230 231 227 222 223 228 232 232 231 231 233 233 231 233 235 233 232 234 237 238 238 238 243 253 257 253 249 251 254 249 242
210 210 211 213 214 212 211 212 215 219 224 226 227 226 227 228 231 235 236 235 235 236 236 235 233 234 235 236 239 241 243 243 240 240 248 255 258 259 258 258 256 252
210 211 213 216 217 215 214 215 217 218 220 222 225 229 232 233 235 240 242 239 237 236 235 235 236 237 238 238 240 243 245 245 243 244 247 249 253 259 260 261 264 265
208 210 212 214 214 215 216 217 217 218 220 223 226 230 234 236 238 243 245 240 237 238 236 235 238 239 239 239 239 239 241 244 247 251 252 254 256 258 260 261 264 268
207 208 210 211 209 211 213 213 214 218 224 227 229 233 238 241 243 245 246 243 238 237 236 235 237 237 235 235 235 233 233 237 244 250 253 254 255 255 257 261 263 263
208 209 210 211 212 216 219 218 218 222 227 232 234 237 240 242 242 243 245 245 241 238 236 234 236 238 236 233 234 235 234 233 236 242 247 249 249 250 253 255 257 257
210 213 212 209 211 218 222 224 226 228 231 234 235 237 239 240 238 239 242 243 241 238 236 233 234 237 235 233 234 236 235 234 234 235 240 246 247 246 247 249 252 255
211 216 215 211 212 214 216 221 226 229 232 234 236 236 236 235 233 233 237 239 239 240 239 236 235 233 232 233 236 237 235 234 233 230 231 237 240 241 244 244 240 236
212 218 219 220 223 222 218 220 224 229 234 237 238 240 239 237 234 233 234 236 239 243 245 245 243 239 236 238 240 242 238 233 230 228 225 225 228 233 234 231 228 227
214 220 223 225 229 229 228 229 230 231 233 237 239 238 235 231 230 233 237 238 241 244 247 249 249 247 245 245 246 247 244 235 229 226 225 223 225 227 229 231 236 239
221 229 233 231 229 230 232 235 238 237 235 237 238 236 230 224 221 225 229 233 238 241 244 247 249 250 249 249 250 250 244 236 230 227 227 228 229 230 231 237 243 247
225 230 233 230 228 229 232 237 244 245 241 238 237 240 241 239 236 233 231 230 232 236 240 245 247 248 248 248 249 247 241 236 233 230 229 233 236 237 238 241 246 249
227 229 231 230 231 232 235 239 243 246 247 245 241 242 245 245 243 242 241 238 235 233 237 241 242 242 242 242 242 241 238 236 235 234 234 237 239 240 240 241 245 249
233 235 236 237 238 240 241 244 246 248 253 256 252 249 249 248 247 245 243 240 236 233 234 237 238 238 239 240 241 240 239 239 240 241 240 238 239 240 240 242 244 248
235 238 241 242 243 244 244 246 248 249 253 257 259 258 257 255 252 250 248 243 238 235 236 236 236 235 236 239 240 241 242 241 241 245 245 239 238 239 240 241 244 247
224 230 238 241 243 246 247 247 250 252 253 254 255 257 258 256 253 252 252 249 245 245 246 246 246 244 242 242 243 244 246 244 241 245 248 243 239 239 237 237 240 244
Height
1578 1580 1581 1582 1583 1584 1585 1586 1587 1588 1589 1590 1591 1591 1593 1594 1594 1595 1596 1596 1597 1598 1598 1599 1599 1599 1600 1600 1600 1601 1601 1602 1602 1602 1602 1603 1603 1603 1604 1604 1604 1605
1578 1579 1580 1581 1582 1583 1584 1585 1587 1587 1588 1589 1590 1591 1592 1593 1594 1594 1595 1596 1596 1597 1597 1598 1598 1599 1599 1599 1600 1600 1600 1601 1601 1601 1602 1602 1602 1603 1603 1604 1604 1604
1576 1578 1579 1580 1581 1582 1583 1584 1586 1587 1588 1588 1589 1590 1591 1592 1593 1593 1594 1595 1595 1596 1596 1597 1597 1598 1598 1599 1599 1599 1600 1600 1601 1601 1601 1601 1602 1602 1603 1603 1603 1604
1575 1576 1578 1579 1580 1581 1583 1583 1584 1585 1587 1587 1588 1589 1590 1591 1592 1592 1593 1593 1594 1595 1595 1596 1597 1597 1597 1598 1598 1598 1599 1599 1600 1600 1600 1601 1601 1601 1602 1602 1602 1603
1573 1575 1576 1578 1579 1580 1582 1582 1583 1584 1585 1586 1587 1588 1589 1590 1590 1591 1592 1592 1593 1594 1594 1595 1595 1596 1596 1597 1597 1598 1598 1598 1599 1599 1599 1600 1600 1600 1601 1601 1601 1601
1572 1573 1575 1576 1578 1579 1580 1581 1582 1583 1584 1585 1586 1587 1587 1588 1589 1590 1590 1591 1591 1592 1593 1594 1594 1595 1595 1596 1596 1597 1597 1597 1598 1598 1598 1598 1599 1599 1599 1600 1600 1600
1570 1572 1573 1575 1576 1577 1579 1580 1581 1581 1582 1584 1584 1585 1586 1587 1587 1588 1589 1589 1590 1591 1592 1593 1593 1594 1594 1595 1595 1596 1596 1596 1597 1597 1597 1597 1597 1598 1598 1598 1599 1599
1568 1570 1572 1573 1575 1576 1577 1578 1579 1580 1581 1582 1583 1584 1584 1585 1586 1587 1588 1588 1589 1590 1590 1591 1592 1593 1593 1594 1594 1595 1595 1595 1596 1596 1596 1596 1596 1597 1597 1597 1597 1597
1567 1568 1570 1571 1573 1574 1575 1576 1577 1578 1579 1580 1581 1582 1583 1584 1585 1585 1586 1587 1588 1589 1589 1590 1591 1592 1592 1593 1593 1594 1594 1595 1595 1595 1595 1596 1596 1596 1596 1596 1596 1597
1565 1566 1568 1570 1571 1572 1573 1574 1576 1577 1578 1579 1580 1581 1581 1582 1583 1584 1585 1586 1586 1587 1588 1589 1589 1590 1591 1591 1592 1593 1593 1594 1594 1594 1595 1595 1595 1595 1595 1595 1595 1595
1563 1565 1566 1568 1569 1570 1571 1573 1574 1575 1576 1577 1578 1579 1580 1581 1582 1583 1583 1584 1585 1586 1587 1587 1588 1589 1589 1590 1591 1592 1592 1593 1593 1593 1594 1594 1594 1594 1594 1594 1594 1594
1561 1563 1565 1566 1567 1569 1570 1571 1572 1574 1575 1575 1576 1577 1578 1579 1580 1581 1582 1582 1583 1584 1585 1586 1586 1587 1588 1588 1589 1590 1591 1591 1592 1592 1592 1593 1593 1593 1593 1594 1593 1593
1560 1562 1563 1565 1566 1567 1569 1570 1571 1572 1573 1574 1575 1575 1576 1577 1578 1579 1580 1580 1582 1582 1583 1584 1584 1585 1586 1587 1587 1588 1589 1589 1590 1590 1591 1591 1591 1592 1592 1592 1593 1593
1558 1560 1561 1563 1565 1566 1567 1568 1569 1571 1572 1572 1573 1573 1574 1575 1575 1577 1578 1579 1580 1580 1581 1582 1583 1583 1584 1585 1585 1586 1587 1587 1588 1588 1589 1589 1590 1590 1591 1591 1591 1592
1557 1558 1560 1561 1563 1564 1566 1567 1568 1569 1570 1571 1571 1572 1573 1573 1574 1575 1576 1577 1578 1578 1579 1580 1580 1581 1582 1582 1583 1584 1584 1585 1586 1587 1587 1587 1588 1588 1589 1589 1590 1590
1556 1557 1559 1560 1561 1563 1564 1565 1566 1567 1568 1569 1569 1570 1571 1572 1573 1573 1574 1575 1576 1577 1577 1578 1578 1579 1580 1580 1581 1582 1582 1583 1583 1584 1585 1586 1586 1586 1587 1588 1588 1588
1555 1556 1558 1559 1560 1561 1562 1564 1565 1565 1566 1567 1568 1568 1569 1570 1571 1572 1572 1573 1574 1575 1575 1576 1576 1577 1578 1578 1579 1580 1580 1581 1581 1582 1583 1584 1584 1584 1585 1586 1586 1586
1553 1555 1556 1558 1559 1560 1561 1562 1563 1564 1564 1565 1566 1567 1567 1568 1569 1570 1570 1571 1572 1572 1573 1573 1574 1575 1576 1577 1577 1578 1578 1579 1579 1580 1580 1581 1582 1582 1583 1583 1584 1585
1552 1553 1555 1557 1558 1558 1559 1560 1561 1562 1562 1563 1564 1565 1566 1567 1568 1568 1568 1569 1570 1570 1571 1571 1573 1574 1574 1575 1575 1576 1576 1577 1577 1578 1578 1579 1580 1581 1581 1582 1582 1582
1550 1552 1553 1555 1555 1556 1557 1558 1558 1559 1559 1560 1562 1563 1564 1565 1566 1567 1567 1567 1568 1568 1569 1570 1570 1571 1572 1573 1573 1574 1574 1575 1575 1576 1576 1577 1578 1578 1579 1580 1580 1581
1548 1549 1550 1552 1553 1553 1554 1555 1555 1555 1557 1558 1558 1559 1560 1562 1564 1565 1566 1567 1567 1568 1568 1568 1568 1569 1570 1570 1571 1571 1572 1573 1573 1574 1574 1575 1576 1576 1577 1577 1578 1579
1545 1546 1547 1548 1549 1550 1551 1551 1551 1552 1553 1554 1555 1556 1557 1559 1561 1562 1562 1564 1565 1566 1566 1566 1566 1566 1567 1568 1568 1569 1570 1570 1571 1571 1572 1573 1573 1574 1574 1575 1576 1576
1543 1544 1544 1545 1546 1547 1548 1548 1549 1550 1550 1551 1553 1554 1554 1555 1557 1558 1558 1560 1561 1562 1563 1563 1563 1564 1564 1565 1566 1566 1567 1567 1568 1568 1569 1570 1570 1571 1572 1573 1574 1574
1541 1542 1542 1543 1544 1544 1545 1545 1545 1546 1547 1548 1551 1551 1550 1551 1553 1553 1554 1556 1556 1557 1558 1559 1560 1561 1561 1562 1562 1563 1563 1564 1565 1565 1566 1567 1567 1568 1569 1570 1571 1572
1539 1540 1540 1541 1541 1542 1542 1542 1543 1544 1544 1545 1547 1547 1547 1548 1549 1549 1550 1551 1552 1554 1554 1555 1556 1557 1558 1558 1558 1559 1559 1560 1561 1562 1562 1563 1564 1565 1566 1567 1567 1569
1538 1538 1539 1539 1540 1540 1541 1541 1542 1542 1542 1542 1543 1544 1544 1544 1545 1545 1545 1547 1548 1550 1550 1550 1551 1553 1554 1554 1554 1555 1555 1556 1557 1559 1559 1560 1561 1562 1563 1564 1565 1566